Location: Newark
(37.9717°N, 99.9089°W)
Time: 09:25:14
(UTC+00:00)

OTV 5 (USA 277) - Pass Details

Date: 25 August 2019
Orbit: 295 x 339 km, 54.5° (Epoch: 08 September)

Event Time Altitude Azimuth Distance (km) Brightness Sun altitude
Rises 03:01:38 0° 251° (WSW) 1,999 ? -19.1°
Reaches altitude 10° 03:03:49 10° 268° (W) 1,171 ? -19.5°
Maximum altitude 03:05:56 22° 323° (NW) 728 ? -19.8°
Enters shadow 03:07:43 12° 13° (NNE) 1,064 ? -20.1°
